Temperature
3 3 3 3 4 4 4 4 4 4 4 4 4 4 4 4 4 3 3 3 3 3 3 3 3 3 3 3 3 3 3 3 2 3 3 3 3 3 3 3 3 3 3
2 3 3 3 3 3 3 3 4 4 3 3 3 3 3 3 3 3 3 3 3 3 3 3 3 3 3 3 3 2 3 3 2 2 2 2 2 2 2 2 2 2 2
2 2 2 2 2 2 3 3 3 3 3 3 3 3 3 3 3 3 2 2 2 2 2 2 2 2 2 2 2 2 2 2 2 2 2 2 2 2 2 2 2 2 2
1 2 2 2 2 2 2 2 2 2 2 2 2 2 2 2 2 2 2 2 2 2 2 2 2 2 2 2 2 2 2 1 1 1 1 1 1 1 1 1 1 1 2
1 1 1 1 1 1 1 1 1 1 2 2 2 2 1 1 1 1 1 1 1 1 1 1 1 1 1 1 1 1 1 1 1 1 1 1 1 1 1 1 1 1 1
0 0 1 1 1 1 1 1 1 1 1 1 1 1 1 1 1 1 1 0 1 1 1 1 1 1 1 1 1 1 1 1 1 1 1 0 0 0 0 0 0 0 0
-0 -0 -0 0 0 -0 0 0 0 0 0 0 0 0 1 0 0 0 0 0 0 0 0 0 0 1 1 1 1 1 0 0 0 0 0 0 -0 0 -0 -0 -0 -0 -0
-1 -1 -1 -1 -1 -1 -1 -1 -1 -0 -0 -0 -0 -0 -0 -0 -0 -0 -0 -0 0 0 0 -0 -0 0 0 0 0 0 0 -0 -0 -0 -0 -0 -0 -1 -1 -1 -1 -1 -0
-1 -1 -1 -1 -1 -1 -1 -1 -1 -1 -1 -1 -1 -1 -1 -1 -1 -1 -1 -1 -0 -0 -0 -1 -1 -0 -0 -0 -0 -0 -0 -0 -1 -1 -1 -1 -1 -1 -1 -1 -1 -1 -1
-2 -2 -2 -2 -2 -2 -2 -2 -2 -2 -2 -2 -2 -2 -2 -2 -2 -1 -1 -1 -1 -1 -1 -1 -1 -1 -1 -1 -1 -1 -1 -1 -1 -1 -1 -1 -1 -1 -1 -1 -1 -2 -2
-2 -2 -2 -2 -2 -2 -2 -2 -2 -2 -2 -3 -3 -3 -3 -2 -2 -2 -2 -2 -2 -2 -2 -2 -2 -2 -2 -2 -2 -2 -2 -2 -2 -2 -2 -2 -2 -1 -1 -1 -1 -2 -2
-2 -2 -3 -3 -3 -3 -3 -3 -3 -3 -3 -3 -3 -3 -3 -3 -3 -3 -2 -2 -2 -2 -2 -2 -2 -2 -2 -2 -2 -2 -2 -2 -2 -2 -2 -2 -2 -2 -2 -2 -2 -2 -2
-3 -3 -3 -3 -3 -3 -4 -4 -4 -4 -4 -4 -4 -4 -4 -4 -3 -3 -3 -3 -3 -3 -3 -3 -3 -3 -3 -3 -3 -3 -3 -3 -3 -2 -2 -2 -2 -2 -2 -2 -2 -2 -2
-3 -3 -3 -4 -4 -4 -4 -4 -5 -5 -5 -5 -5 -5 -4 -4 -4 -4 -3 -3 -3 -3 -3 -3 -3 -3 -3 -3 -3 -3 -3 -3 -3 -3 -3 -3 -3 -2 -2 -2 -2 -2 -2
-4 -4 -4 -4 -4 -5 -5 -5 -5 -5 -5 -5 -5 -5 -5 -5 -4 -4 -4 -4 -4 -4 -4 -4 -4 -4 -4 -4 -4 -4 -3 -3 -3 -3 -3 -3 -3 -3 -3 -2 -3 -3 -3
-4 -4 -5 -5 -5 -5 -5 -5 -5 -5 -5 -5 -5 -5 -5 -5 -5 -4 -4 -4 -4 -4 -4 -4 -4 -4 -4 -4 -4 -4 -4 -4 -4 -4 -3 -3 -3 -3 -3 -3 -3 -3 -3
-5 -5 -5 -5 -6 -6 -6 -6 -6 -6 -6 -6 -6 -5 -5 -5 -5 -5 -4 -4 -4 -4 -4 -4 -4 -4 -4 -4 -4 -4 -4 -4 -4 -4 -4 -4 -4 -4 -4 -3 -3 -4 -3
-5 -5 -5 -6 -6 -6 -6 -6 -6 -6 -6 -6 -6 -6 -5 -5 -5 -5 -5 -5 -5 -5 -5 -5 -5 -5 -5 -5 -5 -5 -5 -4 -4 -4 -4 -4 -4 -4 -4 -4 -4 -4 -4
-6 -6 -6 -6 -6 -6 -6 -6 -6 -6 -6 -6 -6 -6 -5 -5 -5 -5 -5 -5 -5 -5 -5 -5 -5 -5 -5 -5 -5 -5 -5 -5 -5 -5 -5 -5 -5 -4 -4 -4 -4 -4 -4
-6 -6 -6 -6 -6 -6 -7 -7 -7 -7 -7 -6 -6 -6 -6 -6 -5 -5 -5 -5 -5 -5 -5 -5 -5 -5 -5 -5 -5 -5 -5 -5 -5 -5 -5 -5 -5 -5 -5 -5 -4 -4 -4
-6 -6 -6 -6 -6 -7 -7 -7 -7 -7 -7 -6 -6 -6 -6 -6 -6 -6 -6 -6 -6 -6 -6 -6 -6 -6 -6 -6 -5 -5 -5 -5 -5 -5 -5 -5 -5 -5 -5 -5 -4 -4 -4
-6 -6 -6 -6 -7 -7 -7 -7 -7 -7 -7 -7 -6 -6 -6 -6 -6 -6 -6 -6 -6 -6 -6 -6 -6 -6 -6 -6 -6 -6 -6 -6 -6 -5 -5 -5 -5 -5 -5 -5 -4 -4 -4
-6 -7 -7 -7 -7 -7 -7 -7 -7 -7 -7 -7 -7 -7 -7 -7 -7 -6 -6 -6 -6 -6 -6 -6 -6 -6 -6 -6 -6 -6 -6 -6 -6 -6 -6 -5 -5 -5 -5 -5 -4 -4 -4
-7 -7 -7 -7 -7 -7 -7 -7 -7 -7 -7 -7 -7 -7 -7 -7 -7 -6 -6 -6 -6 -6 -6 -6 -6 -6 -6 -6 -6 -6 -6 -6 -6 -6 -6 -5 -5 -5 -5 -5 -5 -4 -4
-7 -7 -7 -7 -7 -7 -7 -7 -7 -7 -7 -7 -7 -7 -7 -7 -7 -7 -6 -6 -6 -6 -6 -6 -6 -6 -6 -6 -6 -6 -6 -6 -6 -6 -6 -5 -5 -5 -5 -5 -5 -4 -4
-7 -7 -7 -7 -7 -7 -7 -7 -7 -7 -7 -7 -7 -7 -7 -7 -7 -7 -7 -6 -6 -6 -6 -6 -6 -6 -6 -6 -6 -6 -6 -6 -6 -6 -6 -5 -5 -5 -5 -5 -5 -5 -5
Wind_Speed
5 4 4 3 3 4 4 4 4 4 4 4 5 5 5 5 5 5 6 6 6 6 6 7 7 7 5 5 5 6 6 6 7 7 6 6 7 6 6 7 7 7 7
4 4 4 3 3 3 3 3 3 3 4 4 4 4 5 5 5 6 6 6 7 7 7 7 7 6 7 6 6 7 6 6 7 8 7 6 6 6 6 7 6 7 7
4 4 3 3 3 3 2 2 2 3 3 3 4 4 4 5 5 5 5 6 6 7 7 7 7 6 7 6 7 6 5 5 6 7 7 5 5 5 6 6 7 7 7
4 3 3 3 3 2 2 2 2 2 3 3 3 3 4 4 5 4 5 5 5 6 6 6 6 6 7 7 6 6 6 5 5 5 6 5 5 5 5 5 6 6 6
3 3 3 3 3 2 2 2 1 1 2 2 2 3 3 3 4 4 4 4 4 5 5 5 5 6 7 6 5 6 5 5 5 5 5 5 5 4 4 4 6 6 7
3 3 3 3 3 2 2 2 1 1 1 1 1 2 3 3 4 5 4 4 4 4 5 4 4 4 5 5 6 6 6 6 6 6 6 6 6 5 5 5 5 5 5
3 3 3 3 2 2 2 2 1 1 1 1 1 1 2 3 3 3 3 3 3 3 4 4 3 4 4 4 4 5 6 7 8 7 7 7 7 6 6 6 6 6 6
2 3 2 2 2 2 2 2 2 2 1 2 2 2 2 2 2 3 2 2 2 3 4 4 4 4 4 4 3 4 4 5 6 6 6 7 6 6 6 6 7 7 6
3 2 2 2 2 2 2 3 2 2 2 2 2 2 2 3 2 2 1 1 2 3 3 3 3 4 4 4 3 4 4 4 3 4 6 6 6 6 6 4 5 5 5
3 3 3 2 2 2 2 2 2 2 2 2 3 3 3 3 3 2 2 1 2 2 2 3 3 3 4 4 3 4 4 5 4 3 3 4 4 4 5 4 5 5 4
3 2 3 2 2 2 2 2 2 2 2 2 3 3 3 3 3 3 2 2 2 2 2 2 2 3 3 4 4 4 5 5 4 4 4 3 3 3 3 3 4 4 5
2 2 2 3 2 2 2 2 2 2 2 2 3 3 3 3 3 3 3 3 3 2 2 2 2 3 3 4 3 3 4 4 3 3 3 3 3 3 3 3 4 4 5
2 2 2 3 3 3 2 2 3 2 2 2 2 3 4 4 3 4 4 4 4 3 2 3 3 4 4 3 3 4 4 3 3 3 3 3 3 4 3 3 3 3 4
2 2 2 2 3 3 3 2 2 2 2 2 3 3 4 4 3 3 3 3 3 3 2 2 3 3 3 3 3 3 2 2 2 3 3 3 3 3 3 3 3 3 3
2 2 2 2 2 2 3 3 3 3 3 3 3 3 3 4 4 6 5 4 3 2 2 1 1 2 2 2 2 2 2 2 2 3 3 3 3 3 3 3 2 2 2
2 2 2 2 2 2 2 3 4 3 5 5 5 4 4 5 5 5 5 5 5 3 2 1 1 2 2 2 2 3 2 2 3 3 3 3 3 3 3 2 2 2 2
2 2 2 2 2 2 2 2 3 4 4 5 5 5 5 5 5 6 5 5 5 3 2 1 2 2 2 2 3 3 3 3 3 2 2 3 3 3 3 2 2 2 2
2 2 2 1 1 1 2 2 2 3 4 4 5 5 5 6 6 6 5 4 3 3 2 2 2 2 2 3 3 3 3 2 2 2 2 2 3 3 3 2 2 2 2
2 1 1 1 1 1 2 2 2 3 3 3 4 4 5 5 5 5 5 3 3 2 2 2 2 2 3 3 3 3 3 3 3 2 2 2 2 2 2 3 2 2 2
1 2 2 1 1 1 1 2 2 2 3 3 3 3 4 4 3 4 4 3 3 3 3 2 3 3 3 3 3 3 3 2 2 2 2 3 2 2 3 3 3 2 2
1 1 2 1 1 1 1 2 2 2 2 3 3 3 4 3 3 3 3 3 3 3 3 3 3 3 3 3 3 3 3 3 2 2 3 3 2 2 3 3 2 2 2
1 1 1 1 1 1 2 2 2 2 3 3 3 3 4 3 3 3 3 4 4 3 3 3 3 3 3 3 3 3 3 3 3 3 3 3 2 2 3 3 2 2 2
1 1 1 1 1 1 2 2 2 2 2 2 3 3 3 3 3 3 3 4 4 3 3 3 3 3 3 3 3 3 3 3 3 3 3 2 2 2 2 2 2 2 2
1 1 1 1 1 1 2 2 2 2 2 2 3 3 3 3 3 4 4 4 4 4 4 3 3 4 4 4 3 3 3 3 3 3 3 2 2 2 2 2 2 2 2
1 1 1 1 1 2 2 2 2 2 2 2 3 3 3 3 3 4 4 4 4 4 4 4 4 4 4 4 4 4 4 4 3 2 2 2 2 2 1 2 1 2 1
1 1 1 1 1 1 1 2 2 2 2 3 3 3 3 3 4 4 4 4 4 4 4 4 4 5 5 4 4 4 4 4 3 3 2 1 1 1 1 1 1 1 1
Wind_Direction
334 322 306 287 263 248 242 236 233 237 241 234 227 226 226 228 230 233 239 238 237 241 243 244 246 247 249 249 247 248 248 248 258 272 274 278 275 277 282 283 284 280 279
325 317 308 297 277 259 250 249 243 241 246 243 230 227 230 233 235 236 240 242 239 238 241 242 245 244 247 251 249 249 250 250 254 265 273 276 274 275 281 284 290 284 283
324 321 317 304 290 280 269 259 254 251 249 243 231 230 233 238 241 243 245 247 248 247 246 244 244 242 246 248 251 253 254 255 255 259 269 272 273 274 283 284 285 288 288
322 318 314 312 303 301 291 276 265 252 247 240 233 238 242 243 244 249 250 251 255 257 255 253 251 247 249 251 255 254 255 254 253 256 266 273 273 274 277 286 290 291 293
311 312 318 324 334 333 310 302 292 267 259 249 238 243 250 249 244 249 254 254 253 259 263 262 260 257 258 260 259 254 250 248 248 252 261 268 271 272 274 282 285 295 295
307 311 323 331 344 339 323 319 324 336 332 301 274 260 263 265 257 256 258 252 254 256 262 268 271 260 261 262 265 264 258 250 249 250 256 260 266 273 279 277 284 292 294
317 325 327 331 336 330 327 325 326 329 345 333 318 298 285 281 273 264 256 254 259 259 261 268 279 273 270 270 267 265 262 262 259 259 257 263 270 272 273 276 274 278 281
332 333 332 327 323 323 323 324 332 342 347 333 328 321 315 304 292 265 271 264 273 274 272 271 276 280 279 276 266 264 268 272 266 258 261 270 273 274 267 268 275 280 283
330 339 342 337 339 340 344 344 343 345 343 339 333 332 325 311 313 297 298 266 268 281 285 284 280 282 288 282 268 269 278 287 288 264 265 270 281 287 284 273 271 275 285
340 343 346 352 352 352 354 351 342 327 330 340 341 337 325 309 324 332 328 273 279 288 295 300 299 290 290 286 276 274 279 287 291 284 276 277 279 283 281 267 267 270 281
338 351 357 356 357 357 355 350 353 347 349 355 347 338 331 322 327 338 328 301 283 288 297 301 311 324 309 303 295 287 289 293 287 286 287 291 293 285 275 269 268 265 266
347 -0 7 10 7 1 5 359 359 1 6 0 357 347 343 337 342 347 344 335 322 298 298 304 313 328 319 313 302 299 297 293 284 282 287 290 291 288 286 283 280 275 270
356 2 6 10 9 4 6 1 354 351 355 348 345 341 338 340 348 357 348 339 333 321 313 321 320 319 319 314 313 306 295 289 287 286 288 289 293 294 294 291 292 289 289
350 355 3 9 10 7 357 354 352 345 339 333 332 332 332 332 337 341 339 334 332 325 316 324 332 334 332 325 318 313 307 303 296 294 298 296 297 299 301 301 298 308 306
342 353 356 4 6 2 0 355 349 339 329 321 323 323 323 325 330 335 332 330 328 319 317 322 331 336 342 336 333 325 318 312 308 307 304 304 306 308 307 306 302 309 306
340 349 348 352 352 352 357 2 17 359 355 349 342 330 329 330 337 345 348 350 345 337 336 342 330 323 321 319 317 317 316 316 309 305 306 309 311 314 315 321 319 308 306
325 329 336 339 340 345 351 352 350 356 0 4 0 350 349 353 358 356 357 359 -0 6 11 352 326 314 311 311 311 313 316 316 311 308 312 314 315 315 313 312 312 311 310
324 329 328 325 329 336 338 332 329 331 336 343 355 2 4 5 2 1 2 1 1 6 356 341 325 317 311 308 308 309 313 318 315 313 313 316 316 314 314 315 310 310 312
329 326 327 332 332 327 323 321 323 322 323 328 336 349 1 2 4 6 2 360 350 343 340 333 321 314 310 309 309 309 310 308 306 306 308 311 312 310 312 313 311 312 310
329 344 344 333 326 323 318 315 315 314 316 322 327 335 342 346 352 354 352 347 339 332 325 319 316 314 311 310 310 311 313 315 317 315 312 311 309 308 309 309 310 312 309
310 322 337 332 324 312 303 298 299 302 309 315 319 328 337 334 333 334 334 333 329 323 318 311 310 311 310 307 306 310 312 313 312 313 312 311 310 312 310 309 305 304 307
307 315 314 305 304 301 299 295 297 300 308 312 320 327 337 335 329 328 327 325 321 316 311 307 306 305 304 300 299 300 300 300 301 302 307 309 310 311 311 311 310 310 312
300 301 305 306 303 297 301 301 299 300 304 310 316 320 322 325 326 325 321 319 318 316 316 313 309 309 309 302 296 288 286 287 291 292 294 301 306 311 312 313 315 317 327
293 287 292 299 298 295 297 301 301 301 305 308 311 313 316 317 317 317 316 314 315 316 316 312 307 310 311 308 302 297 290 288 291 280 274 283 297 307 310 315 319 323 328
289 283 285 287 286 288 294 301 302 301 302 305 308 310 310 311 310 311 312 313 313 313 314 312 308 305 305 304 304 304 304 300 293 284 257 258 277 289 302 318 325 327 338
297 286 285 287 282 280 283 288 293 297 298 302 303 304 307 307 306 305 307 310 312 312 312 311 309 308 306 302 303 304 303 298 293 284 259 243 253 270 296 317 322 323 344
Height
1451 1451 1450 1449 1449 1450 1451 1451 1452 1453 1454 1454 1454 1455 1455 1456 1457 1457 1457 1457 1457 1457 1458 1458 1458 1459 1458 1458 1458 1458 1457 1457 1454 1453 1453 1452 1450 1449 1448 1446 1445 1444 1442
1450 1449 1448 1447 1447 1447 1447 1447 1448 1449 1450 1450 1450 1451 1451 1452 1452 1452 1452 1452 1452 1453 1453 1454 1454 1454 1454 1454 1453 1453 1452 1452 1451 1449 1448 1447 1446 1445 1443 1442 1440 1439 1438
1449 1447 1446 1445 1444 1444 1443 1443 1444 1445 1445 1446 1446 1447 1447 1448 1448 1448 1448 1448 1448 1448 1449 1449 1449 1448 1448 1449 1448 1448 1447 1447 1446 1445 1443 1442 1441 1440 1439 1438 1436 1434 1433
1447 1445 1444 1443 1442 1441 1440 1440 1441 1441 1442 1442 1442 1443 1443 1443 1444 1443 1443 1443 1443 1444 1444 1444 1444 1443 1444 1444 1444 1443 1443 1442 1441 1440 1439 1438 1437 1436 1435 1433 1432 1430 1428
1444 1443 1442 1441 1440 1439 1438 1438 1438 1438 1439 1439 1439 1439 1439 1439 1439 1440 1439 1439 1439 1439 1439 1439 1439 1439 1439 1439 1439 1438 1438 1438 1437 1436 1435 1434 1433 1432 1430 1429 1428 1426 1424
1443 1441 1440 1439 1438 1437 1436 1436 1435 1436 1436 1436 1436 1436 1436 1436 1436 1436 1436 1435 1435 1435 1435 1435 1435 1435 1434 1434 1434 1434 1434 1433 1432 1432 1430 1430 1429 1428 1427 1426 1424 1422 1420
1441 1440 1439 1437 1436 1435 1434 1434 1433 1433 1433 1432 1433 1432 1432 1432 1432 1432 1432 1432 1432 1432 1432 1431 1431 1431 1430 1430 1429 1429 1429 1428 1428 1428 1426 1425 1424 1424 1423 1422 1421 1419 1417
1439 1438 1437 1436 1435 1434 1433 1432 1432 1431 1430 1430 1429 1429 1429 1429 1429 1429 1429 1429 1428 1429 1429 1428 1427 1427 1426 1426 1426 1425 1424 1423 1423 1423 1422 1421 1421 1420 1419 1418 1417 1415 1413
1438 1437 1436 1435 1433 1432 1431 1431 1430 1429 1428 1428 1427 1426 1426 1426 1427 1426 1426 1425 1426 1425 1425 1425 1424 1423 1423 1423 1422 1421 1420 1419 1419 1419 1418 1418 1417 1416 1416 1415 1413 1412 1409
1437 1435 1434 1433 1432 1431 1431 1430 1429 1428 1427 1426 1425 1425 1425 1424 1424 1424 1424 1424 1423 1422 1422 1421 1421 1421 1420 1420 1419 1418 1417 1416 1416 1416 1415 1414 1413 1412 1412 1411 1410 1408 1406
1436 1435 1433 1432 1432 1431 1430 1429 1428 1427 1425 1425 1424 1423 1423 1423 1422 1422 1422 1422 1421 1420 1419 1419 1419 1418 1418 1417 1416 1415 1414 1414 1414 1413 1412 1410 1409 1409 1408 1407 1406 1405 1404
1435 1434 1433 1432 1431 1430 1429 1427 1426 1425 1424 1423 1422 1421 1421 1421 1421 1420 1420 1420 1419 1418 1417 1416 1416 1416 1415 1414 1413 1412 1412 1412 1411 1410 1409 1407 1406 1406 1405 1404 1403 1402 1401
1434 1433 1432 1431 1430 1428 1427 1426 1425 1424 1423 1422 1421 1420 1420 1419 1419 1419 1418 1418 1417 1416 1415 1414 1414 1413 1412 1411 1410 1409 1409 1409 1408 1407 1406 1405 1404 1403 1402 1401 1400 1399 1398
1433 1432 1431 1430 1429 1428 1427 1426 1425 1424 1423 1422 1421 1420 1419 1418 1418 1417 1416 1416 1415 1414 1413 1412 1411 1410 1409 1409 1408 1407 1406 1406 1405 1405 1403 1403 1402 1401 1400 1399 1398 1397 1395
1432 1431 1430 1429 1428 1427 1426 1426 1425 1424 1423 1422 1420 1419 1418 1417 1416 1416 1415 1414 1413 1412 1411 1410 1409 1408 1407 1406 1406 1405 1404 1404 1403 1402 1401 1401 1400 1399 1397 1397 1396 1394 1393
1431 1430 1429 1428 1428 1427 1426 1425 1424 1423 1422 1421 1420 1419 1418 1417 1416 1415 1414 1412 1411 1410 1410 1408 1408 1407 1406 1405 1404 1403 1403 1402 1401 1401 1400 1399 1398 1397 1396 1395 1394 1392 1391
1430 1429 1428 1427 1427 1426 1425 1424 1423 1422 1421 1420 1419 1418 1417 1416 1415 1414 1412 1411 1410 1409 1408 1407 1406 1406 1405 1404 1403 1402 1401 1401 1400 1399 1398 1397 1396 1395 1394 1393 1392 1391 1390
1429 1428 1427 1426 1426 1425 1424 1423 1422 1421 1420 1419 1418 1417 1416 1415 1413 1412 1411 1410 1409 1408 1407 1406 1405 1404 1404 1403 1402 1401 1400 1399 1398 1397 1396 1396 1395 1394 1393 1392 1391 1390 1389
1427 1427 1426 1425 1425 1424 1423 1423 1422 1421 1419 1418 1417 1416 1415 1414 1413 1411 1411 1409 1408 1407 1406 1405 1404 1403 1402 1401 1401 1400 1399 1398 1397 1396 1395 1394 1393 1392 1391 1390 1390 1389 1388
1426 1426 1425 1424 1424 1423 1422 1421 1421 1420 1418 1417 1416 1415 1414 1413 1411 1410 1409 1408 1407 1406 1405 1404 1403 1402 1401 1400 1399 1398 1397 1396 1395 1394 1394 1393 1392 1391 1390 1390 1389 1388 1387
1426 1425 1424 1424 1423 1422 1421 1420 1420 1419 1418 1416 1415 1414 1414 1412 1410 1409 1408 1407 1406 1405 1403 1402 1401 1400 1399 1398 1397 1397 1395 1395 1394 1393 1393 1392 1391 1390 1390 1389 1388 1387 1386
1425 1424 1423 1423 1422 1421 1420 1419 1419 1418 1417 1416 1414 1413 1412 1411 1410 1408 1407 1406 1405 1403 1402 1401 1400 1399 1398 1397 1396 1395 1394 1393 1393 1392 1391 1391 1390 1390 1389 1388 1387 1386 1386
1424 1423 1422 1422 1421 1420 1419 1418 1417 1417 1416 1415 1414 1412 1411 1410 1409 1407 1406 1405 1403 1402 1401 1399 1398 1397 1396 1395 1394 1393 1392 1392 1391 1391 1390 1390 1389 1389 1388 1388 1387 1386 1386
1423 1422 1421 1420 1420 1419 1418 1417 1416 1416 1415 1414 1413 1411 1410 1409 1408 1406 1405 1404 1402 1401 1400 1398 1397 1396 1395 1394 1393 1392 1391 1391 1390 1390 1390 1389 1389 1388 1388 1387 1386 1386 1385
1422 1421 1420 1419 1418 1418 1417 1416 1415 1415 1414 1413 1412 1410 1409 1408 1406 1405 1404 1403 1401 1400 1398 1397 1395 1394 1393 1392 1392 1391 1390 1390 1389 1389 1389 1389 1388 1388 1387 1387 1386 1386 1385
1421 1420 1419 1418 1417 1416 1416 1415 1414 1413 1412 1411 1410 1409 1408 1406 1405 1404 1402 1401 1400 1398 1397 1396 1394 1393 1392 1391 1390 1390 1389 1389 1388 1388 1388 1388 1387 1387 1387 1386 1386 1385 1385